Flag for Germany Weather past 2 weeks in Pulheim, North Rhine-Westphalia, Germany

Now
91 °F

Passing clouds.


Feels Like: 90 °F
Forecast: 72 / 95 °F
Wind: 8 mph from East

Location: Noervenich

Current Time: Jul 1, 2015 at 6:15:32 PM

Latest Report: Jul 1, 2015 at 5:20 PM


Visibility: N/A

Pressure: 30.01 "Hg

Humidity: 32%

Dew point: 57 °F

Location of PulheimLocation

Historic Weather in Pulheim — Graph

°F

Pulheim temperature yesterday

Maximum temperature yesterday: 84 °F (at 6:20 PM)
Minimum temperature yesterday: 55 °F (at 5:20 AM)
Average temperature yesterday: 70 °F

Past Weeks' High & Low Weather Summary

 TemperatureHumidityPressure
High91 °F (Jul 1, 4:20 PM)100% (Jun 22, 11:20 PM)30.30 "Hg (Jun 22, 11:20 PM)
Low45 °F (Jun 17, 4:20 AM)25% (Jun 30, 6:20 PM)29.68 "Hg (Jun 22, 8:20 PM)
Average62 °F68%30.08 "Hg
* Reported Jun 16 4:20 PM — Jul 1 4:20 PM, Pulheim, Weather by CustomWeather, © 2015

Note: Actual official high and low records may vary slightly from our data, if they occured in-between our weather recording intervals... More about our weather records

Advertising

Pulheim weather history for previous 24 hours

 ConditionsComfort  
Time TempWeatherWind HumidityBarometerVisibility
4:20 PM
Wed, Jul 1
91 °FScattered clouds.6 mph34%30.01 "HgN/A
3:20 PM90 °FPartly sunny.7 mph36%30.01 "HgN/A
2:20 PM90 °FPartly sunny.8 mph33%30.04 "HgN/A
1:20 PM88 °FPartly sunny.9 mph35%30.04 "HgN/A
12:20 PM84 °FPartly sunny.9 mph40%30.07 "HgN/A
11:20 AM82 °FPassing clouds.8 mph42%30.07 "HgN/A
10:20 AM79 °FPassing clouds.6 mph48%30.07 "HgN/A
9:20 AM75 °FPassing clouds.7 mph54%30.07 "HgN/A
8:20 AM72 °FPassing clouds.5 mph57%30.09 "HgN/A
7:20 AM66 °FPassing clouds.1 mph64%30.09 "HgN/A
6:20 AM63 °FPassing clouds.1 mph73%30.09 "HgN/A
5:20 AM59 °FPassing clouds.2 mph82%30.09 "HgN/A
4:20 AM63 °FPassing clouds.2 mph73%30.09 "HgN/A
3:20 AM63 °FMild.2 mph73%30.09 "HgN/A
2:20 AM63 °FMild.1 mph73%30.09 "HgN/A
1:20 AM64 °FMild.1 mph68%30.09 "HgN/A
12:20 AM68 °FMild.2 mph60%30.09 "HgN/A
11:20 PM
Tue, Jun 30
70 °FMild.1 mph53%30.09 "HgN/A
10:20 PM72 °FPassing clouds.No wind47%30.09 "HgN/A
9:20 PM77 °FWarm.1 mph42%30.09 "HgN/A
8:20 PM82 °FPleasantly warm.2 mph30%30.09 "HgN/A
6:20 PM84 °FPleasantly warm.3 mph25%30.09 "HgN/A
Weather by CustomWeather, © 2015

See weather overviewHow to use our weather pages